| time (UTC) | temp F | wind direction | speed knots | gust knots | rain 1hr in | rain 24hr in | rain mn in | humidity % | barometer mb |
| 20260504045805 | 60 | 0 | 0.0 | 0.9 | 0.00 | 0.00 | 0.00 | 66 | 1019.3 |
| 20260504045305 | 60 | 0 | 0.0 | 0.0 | 0.00 | 0.00 | 0.00 | 66 | 1019.3 |
| 20260504044806 | 60 | 0 | 0.0 | 1.7 | 0.00 | 0.00 | 0.00 | 66 | 1019.3 |
| 20260504044305 | 60 | 0 | 0.0 | 1.7 | 0.00 | 0.00 | 0.00 | 66 | 1019.3 |
| 20260504043806 | 60 | 0 | 0.0 | 1.7 | 0.00 | 0.00 | 0.00 | 66 | 1019.3 |
| 20260504042805 | 60 | 202 | 0.9 | 1.7 | 0.00 | 0.00 | 0.00 | 66 | 1019.3 |
| 20260504042306 | 60 | 202 | 0.9 | 1.7 | 0.00 | 0.00 | 0.00 | 66 | 1019.3 |
| 20260504041805 | 62 | 202 | 0.9 | 2.6 | 0.00 | 0.00 | 0.00 | 66 | 1019.4 |
| 20260504040305 | 60 | 202 | 0.9 | 2.6 | 0.00 | 0.00 | 0.00 | 66 | 1019.3 |
| 20260504035805 | 61 | 202 | 0.9 | 1.7 | 0.00 | 0.00 | 0.00 | 64 | 1019.3 |
| 20260504035305 | 61 | 0 | 0.0 | 1.7 | 0.00 | 0.00 | 0.00 | 64 | 1019.3 |
| 20260504034805 | 61 | 0 | 0.0 | 1.7 | 0.00 | 0.00 | 0.00 | 64 | 1019.3 |
| 20260504034306 | 61 | 0 | 0.0 | 1.7 | 0.00 | 0.00 | 0.00 | 64 | 1019.3 |
| 20260504033806 | 61 | 0 | 0.0 | 1.7 | 0.00 | 0.00 | 0.00 | 64 | 1019.3 |
| 20260504033305 | 61 | 0 | 0.0 | 1.7 | 0.00 | 0.00 | 0.00 | 64 | 1019.3 |
| 20260504032805 | 61 | 0 | 0.0 | 0.9 | 0.00 | 0.00 | 0.00 | 64 | 1019.3 |
| 20260504032305 | 61 | 202 | 0.9 | 2.6 | 0.00 | 0.00 | 0.00 | 64 | 1019.3 |
| 20260504031805 | 61 | 0 | 0.0 | 2.6 | 0.00 | 0.00 | 0.00 | 64 | 1019.3 |
| 20260504031305 | 61 | 0 | 0.0 | 2.6 | 0.00 | 0.00 | 0.00 | 64 | 1019.3 |
| 20260504030305 | 62 | 207 | 0.9 | 2.6 | 0.00 | 0.00 | 0.00 | 64 | 1019.3 |
| 20260504025805 | 65 | 202 | 1.7 | 1.7 | 0.00 | 0.00 | 0.00 | 61 | 1019.1 |
| 20260504025306 | 66 | 205 | 0.9 | 2.6 | 0.00 | 0.00 | 0.00 | 64 | 1019.2 |
| 20260504024805 | 63 | 0 | 0.9 | 2.6 | 0.00 | 0.00 | 0.00 | 58 | 1019.0 |
| 20260504023805 | 63 | 0 | 0.0 | 2.6 | 0.00 | 0.00 | 0.00 | 58 | 1019.0 |
| 20260504023305 | 63 | 0 | 0.0 | 2.6 | 0.00 | 0.00 | 0.00 | 58 | 1019.0 |
| 20260504022805 | 63 | 198 | 0.9 | 2.6 | 0.00 | 0.00 | 0.00 | 58 | 1019.0 |
| 20260504022305 | 63 | 198 | 0.9 | 1.7 | 0.00 | 0.00 | 0.00 | 58 | 1019.0 |
| 20260504021805 | 63 | 0 | 0.0 | 1.7 | 0.00 | 0.00 | 0.00 | 58 | 1019.0 |
| 20260504021305 | 63 | 198 | 0.9 | 1.7 | 0.00 | 0.00 | 0.00 | 58 | 1019.0 |
| 20260504020805 | 63 | 198 | 0.9 | 2.6 | 0.00 | 0.00 | 0.00 | 58 | 1019.0 |
| 20260504020305 | 63 | 0 | 0.0 | 2.6 | 0.00 | 0.00 | 0.00 | 58 | 1019.0 |
| 20260504015805 | 64 | 0 | 0.0 | 4.3 | 0.00 | 0.00 | 0.00 | 57 | 1018.3 |
| 20260504014804 | 64 | 0 | 0.0 | 4.3 | 0.00 | 0.00 | 0.00 | 57 | 1018.3 |
| 20260504014305 | 65 | 196 | 1.7 | 7.0 | 0.00 | 0.00 | 0.00 | 58 | 1018.4 |
| 20260504013805 | 66 | 192 | 0.9 | 7.0 | 0.00 | 0.00 | 0.00 | 59 | 1018.5 |
| 20260504013305 | 64 | 191 | 0.9 | 7.0 | 0.00 | 0.00 | 0.00 | 57 | 1018.3 |
| 20260504012305 | 64 | 211 | 0.9 | 2.6 | 0.00 | 0.00 | 0.00 | 57 | 1018.3 |
| 20260504011806 | 64 | 0 | 0.0 | 4.3 | 0.00 | 0.00 | 0.00 | 57 | 1018.3 |
| 20260504011304 | 64 | 0 | 0.0 | 4.3 | 0.00 | 0.00 | 0.00 | 57 | 1018.3 |
| 20260504010805 | 64 | 0 | 0.0 | 4.3 | 0.00 | 0.00 | 0.00 | 57 | 1018.3 |
| 20260504010305 | 64 | 209 | 0.9 | 6.1 | 0.00 | 0.00 | 0.00 | 57 | 1018.3 |
| 20260504005806 | 71 | 192 | 0.9 | 6.1 | 0.00 | 0.00 | 0.00 | 37 | 1017.9 |
| 20260504004805 | 71 | 198 | 0.9 | 6.1 | 0.00 | 0.00 | 0.00 | 37 | 1017.9 |
| 20260504004305 | 71 | 217 | 1.7 | 4.3 | 0.00 | 0.00 | 0.00 | 37 | 1017.9 |
| 20260504003805 | 71 | 221 | 0.9 | 4.3 | 0.00 | 0.00 | 0.00 | 37 | 1017.9 |
| 20260504003305 | 71 | 201 | 0.9 | 2.6 | 0.00 | 0.00 | 0.00 | 37 | 1017.9 |
| 20260504002804 | 71 | 245 | 1.7 | 2.6 | 0.00 | 0.00 | 0.00 | 37 | 1018.0 |
| 20260504002305 | 70 | 289 | 0.9 | 2.6 | 0.00 | 0.00 | 0.00 | 37 | 1017.9 |
| 20260504001805 | 70 | 351 | 0.9 | 2.6 | 0.00 | 0.00 | 0.00 | 42 | 1017.9 |
| 20260504001304 | 71 | 213 | 1.7 | 4.3 | 0.00 | 0.00 | 0.00 | 37 | 1017.9 |
| 20260504000805 | 71 | 213 | 1.7 | 4.3 | 0.00 | 0.00 | 0.00 | 37 | 1017.9 |
| 20260504000304 | 71 | 0 | 0.0 | 6.1 | 0.00 | 0.00 | 0.00 | 53 | 1017.9 |
| 20260503235305 | 75 | 239 | 2.6 | 5.2 | 0.00 | 0.00 | 0.00 | 30 | 1018.3 |
| 20260503234805 | 75 | 209 | 1.7 | 4.3 | 0.00 | 0.00 | 0.00 | 35 | 1018.3 |
| 20260503233304 | 75 | 0 | 0.0 | 4.3 | 0.00 | 0.00 | 0.00 | 30 | 1018.3 |
| 20260503232306 | 75 | 57 | 0.9 | 4.3 | 0.00 | 0.00 | 0.00 | 30 | 1018.3 |
| 20260503231805 | 75 | 94 | 1.7 | 4.3 | 0.00 | 0.00 | 0.00 | 30 | 1018.3 |
| 20260503231305 | 75 | 0 | 0.9 | 4.3 | 0.00 | 0.00 | 0.00 | 30 | 1018.3 |
| 20260503230805 | 75 | 0 | 0.9 | 4.3 | 0.00 | 0.00 | 0.00 | 32 | 1018.2 |
| 20260503230305 | 75 | 8 | 2.6 | 4.3 | 0.00 | 0.00 | 0.00 | 30 | 1018.1 |
| 20260503225805 | 75 | 11 | 2.6 | 6.1 | 0.00 | 0.00 | 0.00 | 37 | 1018.0 |
| 20260503225305 | 75 | 12 | 1.7 | 6.1 | 0.00 | 0.00 | 0.00 | 31 | 1018.3 |
| 20260503224805 | 75 | 355 | 3.5 | 7.0 | 0.00 | 0.00 | 0.00 | 30 | 1018.3 |
| 20260503224305 | 75 | 332 | 5.2 | 7.0 | 0.00 | 0.00 | 0.00 | 30 | 1018.3 |
| 20260503223804 | 75 | 26 | 2.6 | 7.0 | 0.00 | 0.00 | 0.00 | 33 | 1018.3 |
| 20260503223306 | 75 | 329 | 1.7 | 4.3 | 0.00 | 0.00 | 0.00 | 30 | 1018.3 |
| 20260503222804 | 75 | 0 | 0.0 | 4.3 | 0.00 | 0.00 | 0.00 | 30 | 1018.3 |
| 20260503222305 | 75 | 344 | 0.9 | 4.3 | 0.00 | 0.00 | 0.00 | 30 | 1018.3 |
| 20260503221305 | 75 | 152 | 1.7 | 8.7 | 0.00 | 0.00 | 0.00 | 30 | 1018.3 |
| 20260503220804 | 75 | 252 | 1.7 | 10.4 | 0.00 | 0.00 | 0.00 | 30 | 1018.3 |
| 20260503220304 | 75 | 5 | 1.7 | 10.4 | 0.00 | 0.00 | 0.00 | 30 | 1018.3 |
| 20260503215804 | 76 | 0 | 1.7 | 10.4 | 0.00 | 0.00 | 0.00 | 28 | 1019.0 |
| 20260503215304 | 76 | 0 | 1.7 | 10.4 | 0.00 | 0.00 | 0.00 | 29 | 1018.9 |
| 20260503214805 | 77 | 348 | 0.9 | 7.8 | 0.00 | 0.00 | 0.00 | 32 | 1018.7 |
| 20260503214305 | 77 | 16 | 1.7 | 7.0 | 0.00 | 0.00 | 0.00 | 28 | 1018.2 |
| 20260503213804 | 76 | 102 | 1.7 | 7.0 | 0.00 | 0.00 | 0.00 | 28 | 1018.9 |
| 20260503212805 | 76 | 319 | 2.6 | 7.8 | 0.00 | 0.00 | 0.00 | 29 | 1018.9 |
| 20260503212305 | 76 | 11 | 2.6 | 7.8 | 0.00 | 0.00 | 0.00 | 28 | 1019.0 |
| 20260503211804 | 76 | 190 | 2.6 | 7.8 | 0.00 | 0.00 | 0.00 | 28 | 1019.0 |
| 20260503211304 | 76 | 36 | 0.9 | 7.8 | 0.00 | 0.00 | 0.00 | 28 | 1019.0 |
| 20260503210305 | 76 | 347 | 0.9 | 7.0 | 0.00 | 0.00 | 0.00 | 28 | 1019.0 |
| 20260503205805 | 75 | 52 | 1.7 | 7.0 | 0.00 | 0.00 | 0.00 | 29 | 1020.0 |
| 20260503205304 | 75 | 347 | 1.7 | 7.0 | 0.00 | 0.00 | 0.00 | 29 | 1020.0 |
| 20260503204805 | 75 | 355 | 2.6 | 7.0 | 0.00 | 0.00 | 0.00 | 29 | 1020.0 |
| 20260503204304 | 75 | 0 | 0.0 | 2.6 | 0.00 | 0.00 | 0.00 | 29 | 1020.0 |
| 20260503203805 | 75 | 277 | 0.9 | 2.6 | 0.00 | 0.00 | 0.00 | 29 | 1020.0 |
| 20260503203305 | 75 | 230 | 0.9 | 5.2 | 0.00 | 0.00 | 0.00 | 30 | 1019.8 |
| 20260503202305 | 77 | 351 | 2.6 | 5.2 | 0.00 | 0.00 | 0.00 | 29 | 1019.5 |
| 20260503201805 | 75 | 348 | 2.6 | 6.1 | 0.00 | 0.00 | 0.00 | 29 | 1019.9 |
| 20260503201304 | 75 | 0 | 0.9 | 6.1 | 0.00 | 0.00 | 0.00 | 30 | 1019.9 |
| 20260503200304 | 75 | 327 | 2.6 | 7.0 | 0.00 | 0.00 | 0.00 | 29 | 1020.0 |
| 20260503195804 | 76 | 355 | 0.9 | 7.8 | 0.00 | 0.00 | 0.00 | 28 | 1020.7 |
| 20260503195305 | 76 | 314 | 1.7 | 7.8 | 0.00 | 0.00 | 0.00 | 31 | 1020.7 |
| 20260503194305 | 76 | 355 | 2.6 | 7.8 | 0.00 | 0.00 | 0.00 | 28 | 1020.7 |
| 20260503193805 | 76 | 355 | 0.9 | 5.2 | 0.00 | 0.00 | 0.00 | 28 | 1020.7 |
| 20260503193305 | 76 | 314 | 1.7 | 4.3 | 0.00 | 0.00 | 0.00 | 28 | 1020.7 |
| 20260503192805 | 76 | 239 | 1.7 | 7.8 | 0.00 | 0.00 | 0.00 | 28 | 1020.7 |
| 20260503192305 | 76 | 325 | 2.6 | 7.8 | 0.00 | 0.00 | 0.00 | 28 | 1020.7 |
| 20260503191804 | 76 | 329 | 2.6 | 7.8 | 0.00 | 0.00 | 0.00 | 28 | 1020.7 |
| 20260503190805 | 76 | 59 | 2.6 | 4.3 | 0.00 | 0.00 | 0.00 | 32 | 1020.5 |
| 20260503190304 | 76 | 24 | 1.7 | 4.3 | 0.00 | 0.00 | 0.00 | 34 | 1020.4 |
| 20260503185804 | 77 | 38 | 1.7 | 6.1 | 0.00 | 0.00 | 0.00 | 28 | 1021.6 |
| 20260503185305 | 74 | 333 | 1.7 | 6.1 | 0.00 | 0.00 | 0.00 | 29 | 1021.6 |
| 20260503184804 | 74 | 331 | 3.5 | 6.1 | 0.00 | 0.00 | 0.00 | 29 | 1021.6 |
| 20260503183804 | 74 | 278 | 2.6 | 7.0 | 0.00 | 0.00 | 0.00 | 28 | 1021.7 |
| 20260503183305 | 74 | 10 | 1.7 | 7.0 | 0.00 | 0.00 | 0.00 | 28 | 1021.7 |
| 20260503182804 | 74 | 331 | 1.7 | 7.0 | 0.00 | 0.00 | 0.00 | 28 | 1021.7 |
| 20260503181305 | 74 | 255 | 0.9 | 7.0 | 0.00 | 0.00 | 0.00 | 28 | 1021.7 |
| 20260503180804 | 74 | 320 | 4.3 | 7.0 | 0.00 | 0.00 | 0.00 | 28 | 1021.7 |
| 20260503180305 | 74 | 355 | 0.9 | 7.8 | 0.00 | 0.00 | 0.00 | 28 | 1021.7 |
| 20260503175805 | 73 | 274 | 2.6 | 7.8 | 0.00 | 0.00 | 0.00 | 27 | 1022.4 |
| 20260503175305 | 73 | 327 | 2.6 | 7.8 | 0.00 | 0.00 | 0.00 | 27 | 1022.1 |
| 20260503174804 | 74 | 323 | 1.7 | 7.8 | 0.00 | 0.00 | 0.00 | 31 | 1021.8 |
| 20260503172805 | 73 | 337 | 4.3 | 7.8 | 0.00 | 0.00 | 0.00 | 39 | 1022.3 |
| 20260503171804 | 73 | 15 | 2.6 | 7.0 | 0.00 | 0.00 | 0.00 | 27 | 1022.4 |
| 20260503171305 | 73 | 61 | 2.6 | 5.2 | 0.00 | 0.00 | 0.00 | 27 | 1022.4 |
| 20260503170804 | 73 | 244 | 0.9 | 7.8 | 0.00 | 0.00 | 0.00 | 27 | 1022.4 |
| 20260503170304 | 73 | 47 | 1.7 | 10.4 | 0.00 | 0.00 | 0.00 | 27 | 1022.4 |
| 20260503150303 | 69 | 9 | 3.5 | 10.4 | 0.00 | 0.00 | 0.00 | 43 | 1022.5 |
| 20260503140305 | 66 | 92 | 0.9 | 4.3 | 0.00 | 0.00 | 0.00 | 46 | 1022.4 |
| 20260503131304 | 58 | 0 | 0.0 | 5.2 | 0.00 | 0.00 | 0.00 | 69 | 1021.7 |
| 20260503130304 | 58 | 346 | 0.9 | 7.0 | 0.00 | 0.00 | 0.00 | 69 | 1021.7 |
| 20260503110304 | 44 | 0 | 0.0 | 0.0 | 0.00 | 0.03 | 0.00 | 92 | 1021.0 |
| 20260503090305 | 47 | 0 | 0.0 | 0.0 | 0.00 | 0.17 | 0.00 | 89 | 1020.0 |
| 20260503081305 | 46 | 0 | 0.0 | 0.0 | 0.00 | 0.33 | 0.00 | 91 | 1019.6 |
| 20260503080805 | 46 | 0 | 0.0 | 0.0 | 0.00 | 0.35 | 0.00 | 89 | 1019.6 |
| 20260503080306 | 46 | 0 | 0.0 | 0.0 | 0.00 | 0.36 | 0.00 | 87 | 1019.4 |
| 20260503072806 | 47 | 0 | 0.0 | 0.0 | 0.00 | 0.63 | 0.00 | 89 | 1019.3 |
| 20260503072306 | 47 | 0 | 0.0 | 0.0 | 0.00 | 0.68 | 0.00 | 89 | 1019.3 |
| 20260503071805 | 47 | 0 | 0.0 | 0.0 | 0.00 | 0.70 | 0.00 | 89 | 1019.3 |
| 20260503071306 | 47 | 0 | 0.0 | 0.0 | 0.00 | 0.71 | 0.00 | 89 | 1019.3 |
| 20260503070805 | 47 | 0 | 0.0 | 0.0 | 0.00 | 0.71 | 0.00 | 89 | 1019.3 |
| 20260503060306 | 52 | 0 | 0.0 | 0.0 | 0.00 | 0.84 | 0.00 | 68 | 1019.3 |
| 20260503054806 | 54 | 0 | 0.0 | 0.9 | 0.00 | 1.02 | 0.00 | 64 | 1019.0 |
| 20260503054305 | 54 | 0 | 0.0 | 0.9 | 0.00 | 1.03 | 0.00 | 64 | 1019.0 |
| 20260503053806 | 54 | 0 | 0.0 | 0.0 | 0.00 | 1.03 | 0.00 | 64 | 1019.0 |
| 20260503053306 | 54 | 0 | 0.0 | 0.0 | 0.00 | 1.07 | 0.00 | 64 | 1019.0 |
| 20260503052306 | 54 | 0 | 0.0 | 0.9 | 0.00 | 1.18 | 0.00 | 64 | 1019.0 |